Regional Weather Roundup
Issued by NWS

Home | Current Version | Previous Version | Graphics & Text | Print | Product List | Glossary On
Versions: 1 2 3 4 5 6 7 8 9 10 11 12 13 14 15 16 17 18 19 20 21 22 23 24 25 26 27 28 29 30 31 32 33 34 35 36 37 38 39 40 41 42 43 44 45 46 47 48 49 50
000
ASUS45 KCYS 281110
RWRWY

WYOMING REGIONAL WEATHER ROUNDUP
NATIONAL WEATHER SERVICE CHEYENNE WY
500 AM MDT THU JUL 28 2016

NOTE:  "FAIR" INDICATES FEW OR NO CLOUDS BELOW 12,000 FEET
WITH NO SIGNIFICANT WEATHER AND/OR OBSTRUCTIONS TO VISIBILITY.

WYZ001-281200-
YELLOWSTONE NATIONAL PARK

CITY           SKY/WX    TMP DP  RH WIND       PRES   REMARKS
LK YELLOWSTONE   N/A     43  43 100 CALM      30.40R
W YELLOWSTONE  NOT AVBL

$$
WYZ002>013-054>058-071-098>099-281200-
NORTHERN WYOMING

CITY           SKY/WX    TMP DP  RH WIND       PRES   REMARKS
JACKSON        FAIR      54  37  54 N3        30.27R
CODY           FAIR      57  52  82 N8        30.28R
GREYBULL       FAIR      66  51  58 W6        30.15F
WORLAND        FAIR      60  56  86 NE8       30.18F
SHERIDAN       RAIN      64  59  83 W12       30.22R
BUFFALO        LGT RAIN  60  52  74 W17       30.27R
GILLETTE       FAIR      59  56  89 CALM      30.16R
HULETT         FAIR      61  54  77 CALM      30.17R
NEWCASTLE      FAIR      55  55 100 N5        30.16R

$$
WYZ014>020-022>026-101>103-281200-
CENTRAL WYOMING

CITY           SKY/WX    TMP DP  RH WIND       PRES   REMARKS
BIG PINEY      FAIR      49  29  46 N3        30.29R
PINEDALE       FAIR      45  34  65 NW7       30.30R
DUBOIS         FAIR      52  34  50 NW6       30.33R HAZE
LANDER         FAIR      64  49  57 SW5       30.24R
RIVERTON       FAIR      65  49  56 NE15G25   30.23R
CASPER         MOCLDY    57  55  93 N9        30.21R
DOUGLAS          N/A    N/A N/A N/A MISG      30.18R

$$
WYZ021-027>030-104>119-281200-
SOUTHERN WYOMING

CITY           SKY/WX    TMP DP  RH WIND       PRES   REMARKS
EVANSTON       FAIR      60  25  26 S8        30.28F
KEMMERER         N/A     52  28  40 N12       30.31R
FORT BRIDGER   FAIR      60  24  25 CALM      30.30R
ROCK SPRINGS   FAIR      62  35  36 E5        30.26R
DIXON          FAIR      46  32  58 CALM      30.29R
RAWLINS        FAIR      50  40  68 N5        30.24R
SARATOGA       FAIR      46  32  57 CALM      30.27R
LARAMIE        FAIR      54  53  97 S12       30.24F
CHEYENNE       FAIR      58  55  90 SW10      30.20S
TORRINGTON     FAIR      63  60  90 NE20G31   30.16R
PINE BLUFFS    PTSUNNY   61  61 100 S13G21    30.15S

$$



USA.gov is the U.S. government's official web portal to all federal, state and local government web resources and services.